Winona, MN

1:34 AM CST on November 20, 2019 (GMT -0600)
Winona Municipal-Conrad

Weather History for KONA - October, 2019

Change the Weather History Date:

Sunday, October 20, 2019

  Actual Average Record
Temperature  
Mean Temperature 50 °F -  
Max Temperature 60 °F 54 °F 80 °F (2003)
Min Temperature 39 °F 37 °F 22 °F (1992)
Degree Days  
Heating Degree Days 16    
Moisture  
Dew Point 44 °F    
Average Humidity 87    
Maximum Humidity 100    
Minimum Humidity 55    
Precipitation  
Precipitation 0.00 in - - ()
Sea Level Pressure  
Sea Level Pressure 29.85 in    
Wind  
Wind Speed 1 mph (SE)    
Max Wind Speed 9 mph    
Max Gust Speed -    
Visibility 6 miles    
Events Fog    
Averages and records for this station are not official NWS values.
T = Trace of Precipitation, MM = Missing Value Source: NWS Daily Summary

Daily Weather History Graph

Daily Weather History Graph

Search for Another Location

Airport or City:

Astronomy

Oct. 20, 2019 Rise Set
Actual Time 7:27 AM CDT 6:15 PM CDT
Civil Twilight 6:58 AM CDT 6:44 PM CDT
Nautical Twilight 6:24 AM CDT 7:17 PM CDT
Astronomical Twilight 5:51 AM CDT 7:51 PM CDT
Moon 11:15 PM CDT 2:04 PM CDT
Length of Visible Light 11h 46m
Length of Day
10h 47m
Waning Gibbous, 59% of the Moon is Illuminated
Oct 20
Waning Gibbous
Oct 21
Last Quarter
Oct 27
New
Nov 4
First Quarter
Nov 12
Full

Hourly Weather History & Observations

Time (CDT) Temp. Windchill Dew Point Humidity Pressure Visibility Wind Dir Wind Speed Gust Speed Precip Events Conditions
12:15 AM 48.2 °F - 46.4 °F 93% 29.77 in 10.0 mi Calm Calm - N/A   Scattered Clouds
12:36 AM 46.4 °F - 44.6 °F 93% 29.78 in 5.0 mi Calm Calm - N/A   Clear
12:56 AM 42.8 °F - 42.8 °F 100% 29.78 in 0.8 mi Calm Calm - N/A   Mist
1:15 AM 42.8 °F - 42.8 °F 100% 29.78 in 5.0 mi Calm Calm - N/A   Clear
1:36 AM 41.0 °F - 41.0 °F 100% 29.79 in 0.5 mi Calm Calm - N/A Fog Fog
1:55 AM 41.0 °F - 41.0 °F 100% 29.79 in 1.2 mi Calm Calm - N/A   Mist
2:15 AM 41.0 °F - 41.0 °F 100% 29.79 in 0.5 mi Calm Calm - N/A Fog Fog
2:36 AM 41.0 °F - 41.0 °F 100% 29.80 in 0.8 mi Calm Calm - N/A   Mostly Cloudy
2:55 AM 41.0 °F - 39.2 °F 93% 29.80 in 0.5 mi Calm Calm - N/A Fog Fog
3:16 AM 41.0 °F - 39.2 °F 93% 29.79 in 0.8 mi Calm Calm - N/A   Overcast
3:35 AM 41.0 °F - 39.2 °F 93% 29.79 in 0.2 mi Calm Calm - N/A Fog Fog
3:56 AM 41.0 °F - 39.2 °F 93% 29.78 in 0.2 mi Calm Calm - N/A Fog Fog
4:15 AM 41.0 °F - 39.2 °F 93% 29.79 in 0.2 mi Calm Calm - N/A Fog Fog
4:35 AM 41.0 °F - 39.2 °F 93% 29.81 in 0.2 mi Calm Calm - N/A Fog Fog
4:56 AM 41.0 °F - 39.2 °F 93% 29.82 in 0.2 mi Calm Calm - N/A Fog Fog
5:15 AM 41.0 °F - 41.0 °F 100% 29.83 in 0.2 mi Calm Calm - N/A Fog Fog
5:36 AM 41.0 °F - 39.2 °F 93% 29.83 in 0.2 mi Calm Calm - N/A Fog Fog
5:56 AM 41.0 °F - 39.2 °F 93% 29.84 in 0.5 mi Calm Calm - N/A Fog Fog
6:15 AM 41.0 °F - 39.2 °F 93% 29.84 in 0.2 mi Calm Calm - N/A Fog Fog
6:36 AM 41.0 °F - 39.2 °F 93% 29.85 in 0.2 mi Calm Calm - N/A Fog Fog
6:55 AM 39.2 °F - 39.2 °F 100% 29.85 in 0.2 mi Calm Calm - N/A Fog Fog
7:16 AM 39.2 °F - 39.2 °F 100% 29.86 in 0.2 mi Calm Calm - N/A Fog Fog
7:35 AM 39.2 °F - 39.2 °F 100% 29.86 in 0.2 mi Calm Calm - N/A Fog Fog
7:55 AM 39.2 °F - 39.2 °F 100% 29.87 in 0.2 mi Calm Calm - N/A Fog Fog
8:16 AM 39.2 °F - 39.2 °F 100% 29.87 in 0.2 mi Calm Calm - N/A Fog Fog
8:35 AM 39.2 °F - 39.2 °F 100% 29.88 in 0.2 mi Calm Calm - N/A Fog Fog
8:55 AM 41.0 °F - 39.2 °F 93% 29.89 in 0.2 mi Calm Calm - N/A Fog Fog
9:16 AM 41.0 °F 39.0 °F 39.2 °F 93% 29.89 in 0.5 mi SSE 3.5 mph - N/A Fog Fog
9:36 AM 41.0 °F 38.0 °F 41.0 °F 100% 29.90 in 0.2 mi SE 4.6 mph - N/A Fog Fog
10:16 AM 41.0 °F 39.0 °F 41.0 °F 100% 29.91 in 0.2 mi SE 3.5 mph - N/A Fog Fog
10:35 AM 42.8 °F - 41.0 °F 93% 29.91 in 0.5 mi Calm Calm - N/A Fog Fog
10:56 AM 42.8 °F 39.3 °F 42.8 °F 100% 29.90 in 0.5 mi SE 5.8 mph - N/A Fog Fog
11:16 AM 44.6 °F 42.2 °F 42.8 °F 93% 29.90 in 1.0 mi SE 4.6 mph - N/A   Overcast
11:36 AM 46.4 °F 45.2 °F 44.6 °F 93% 29.90 in 2.0 mi SSE 3.5 mph - N/A   Overcast
11:55 AM 46.4 °F 43.5 °F 46.4 °F 100% 29.90 in 5.0 mi SSE 5.8 mph - N/A   Overcast
12:16 PM 48.2 °F - 48.2 °F 100% 29.91 in 10.0 mi ESE 5.8 mph - N/A   Overcast
12:35 PM 48.2 °F - 48.2 °F 100% 29.90 in 10.0 mi SE 5.8 mph - N/A   Mostly Cloudy
12:56 PM 50.0 °F - 50.0 °F 100% 29.90 in 10.0 mi SE 5.8 mph - N/A   Clear
1:16 PM 53.6 °F - 51.8 °F 94% 29.89 in 10.0 mi SE 4.6 mph - N/A   Clear
1:35 PM 55.4 °F - 50.0 °F 82% 29.88 in 10.0 mi SE 3.5 mph - N/A   Clear
1:56 PM 59.0 °F - 50.0 °F 72% 29.88 in 10.0 mi ESE 4.6 mph - N/A   Clear
2:16 PM 59.0 °F - 48.2 °F 67% 29.88 in 10.0 mi SE 8.1 mph - N/A   Clear
2:36 PM 60.8 °F - 46.4 °F 59% 29.87 in 10.0 mi SE 8.1 mph - N/A   Clear
2:55 PM 60.8 °F - 46.4 °F 59% 29.86 in 10.0 mi SE 9.2 mph - N/A   Clear
3:15 PM 60.8 °F - 44.6 °F 55% 29.86 in 10.0 mi SE 8.1 mph - N/A   Clear
3:35 PM 60.8 °F - 44.6 °F 55% 29.86 in 10.0 mi SE 6.9 mph - N/A   Clear
3:55 PM 60.8 °F - 44.6 °F 55% 29.86 in 10.0 mi SE 8.1 mph - N/A   Clear
4:16 PM 60.8 °F - 44.6 °F 55% 29.86 in 10.0 mi SE 8.1 mph - N/A   Clear
4:35 PM 59.0 °F - 46.4 °F 63% 29.86 in 10.0 mi SE 5.8 mph - N/A   Clear
4:55 PM 59.0 °F - 44.6 °F 59% 29.86 in 10.0 mi SE 3.5 mph - N/A   Clear
5:16 PM 59.0 °F - 44.6 °F 59% 29.86 in 10.0 mi SSE 3.5 mph - N/A   Clear
5:35 PM 59.0 °F - 46.4 °F 63% 29.86 in 10.0 mi SSE 4.6 mph - N/A   Clear
5:56 PM 55.4 °F - 44.6 °F 67% 29.86 in 10.0 mi SSE 3.5 mph - N/A   Clear
6:16 PM 55.4 °F - 46.4 °F 72% 29.86 in 10.0 mi Calm Calm - N/A   Clear
6:36 PM 53.6 °F - 46.4 °F 77% 29.85 in 10.0 mi SSE 3.5 mph - N/A   Clear
6:56 PM 55.4 °F - 46.4 °F 72% 29.84 in 10.0 mi SSE 4.6 mph - N/A   Clear
7:15 PM 53.6 °F - 46.4 °F 77% 29.85 in 10.0 mi Calm Calm - N/A   Clear
7:36 PM 53.6 °F - 48.2 °F 82% 29.85 in 10.0 mi Calm Calm - N/A   Clear
7:56 PM 53.6 °F - 46.4 °F 77% 29.86 in 10.0 mi Calm Calm - N/A   Clear
8:16 PM 53.6 °F - 48.2 °F 82% 29.86 in 10.0 mi Calm Calm - N/A   Clear
8:35 PM 48.2 °F - 44.6 °F 87% 29.86 in 10.0 mi Calm Calm - N/A   Clear
8:56 PM 51.8 °F - 48.2 °F 88% 29.86 in 10.0 mi Calm Calm - N/A   Clear
9:15 PM 51.8 °F - 46.4 °F 82% 29.85 in 10.0 mi Calm Calm - N/A   Clear
9:35 PM 48.2 °F - 46.4 °F 93% 29.85 in 10.0 mi Calm Calm - N/A   Clear
9:55 PM 48.2 °F - 46.4 °F 93% 29.85 in 10.0 mi Calm Calm - N/A   Clear
10:15 PM 48.2 °F - 46.4 °F 93% 29.85 in 10.0 mi Calm Calm - N/A   Clear
10:35 PM 48.2 °F - 46.4 °F 93% 29.84 in 10.0 mi Calm Calm - N/A   Clear
10:55 PM 48.2 °F - 46.4 °F 93% 29.83 in 10.0 mi Calm Calm - N/A   Clear
11:16 PM 50.0 °F - 46.4 °F 87% 29.82 in 10.0 mi Calm Calm - N/A   Clear
11:35 PM 50.0 °F - 46.4 °F 87% 29.82 in 10.0 mi Calm Calm - N/A   Clear
11:55 PM 50.0 °F - 46.4 °F 87% 29.82 in 10.0 mi SE 3.5 mph - N/A   Clear